Вернуться в каталог

FENGYUN 1C DEB

АктивенPO
NORAD 30050·DEBRIS·🇨🇳 China

Запущен May 10, 1999 с Taiyuan Satellite Launch Center

Loading…

Ближайшие Пролёты (ближайшие 24 часа)

TLE

СвежийSource: Space-Track

Эпоха: Sep 14, 2026, 12:13 UTC

1 30050U 99025PB  26257.50961898  .00000609  00000-0  49732-3 0  9994
2 30050  96.8196 148.1421 0169392 323.3947 159.2224 13.85629198990208

Отслеживайте FENGYUN 1C DEB в реальном времени с AllMySat

Download on the App Store